TimeAKDT,TemperatureF,Dew PointF,Humidity,Sea Level PressureIn,VisibilityMPH,Wind Direction,Wind SpeedMPH,Gust SpeedMPH,PrecipitationIn,Events,Conditions,WindDirDegrees,DateUTC
12:53 AM,54.0,37.9,55,28.97,10.0,NNE,13.8,20.7,N/A,,Overcast,20,2013-09-29 08:53:00
1:53 AM,54.0,37.9,55,28.98,10.0,North,13.8,-,N/A,,Overcast,10,2013-09-29 09:53:00
2:53 AM,54.0,37.9,55,29.00,10.0,North,9.2,19.6,N/A,,Overcast,10,2013-09-29 10:53:00
3:53 AM,54.0,37.9,55,28.98,10.0,NNE,15.0,23.0,N/A,,Overcast,20,2013-09-29 11:53:00
4:53 AM,54.0,37.0,53,28.99,10.0,NNE,11.5,-,N/A,,Mostly Cloudy,20,2013-09-29 12:53:00
5:53 AM,54.0,37.0,53,29.00,10.0,NNE,13.8,19.6,N/A,,Overcast,30,2013-09-29 13:53:00
6:53 AM,54.0,37.0,53,29.00,10.0,North,9.2,-,N/A,,Overcast,10,2013-09-29 14:53:00
7:53 AM,54.0,37.0,53,29.02,10.0,NNE,10.4,-,N/A,,Overcast,30,2013-09-29 15:53:00
8:53 AM,54.0,37.0,53,29.01,10.0,NNE,11.5,-,N/A,,Overcast,20,2013-09-29 16:53:00
9:53 AM,54.0,37.0,53,29.03,10.0,NNE,15.0,19.6,N/A,,Mostly Cloudy,30,2013-09-29 17:53:00
10:53 AM,55.0,37.0,51,29.05,10.0,North,11.5,-,N/A,,Mostly Cloudy,10,2013-09-29 18:53:00
11:53 AM,55.0,37.9,53,29.05,10.0,NNE,9.2,-,N/A,,Overcast,30,2013-09-29 19:53:00
12:53 PM,55.0,37.9,53,29.06,10.0,NNE,11.5,18.4,N/A,,Overcast,30,2013-09-29 20:53:00
1:53 PM,55.0,37.9,53,29.07,10.0,NNE,9.2,-,N/A,,Overcast,20,2013-09-29 21:53:00
2:53 PM,55.0,37.9,53,29.08,10.0,NNE,9.2,-,N/A,,Overcast,20,2013-09-29 22:53:00
3:53 PM,55.0,37.9,53,29.09,10.0,North,10.4,-,N/A,,Overcast,10,2013-09-29 23:53:00
4:53 PM,55.0,39.0,55,29.10,10.0,NNE,11.5,-,N/A,,Overcast,20,2013-09-30 00:53:00
5:53 PM,55.0,37.9,53,29.11,10.0,NNE,9.2,-,N/A,,Mostly Cloudy,20,2013-09-30 01:53:00
6:53 PM,55.0,37.9,53,29.12,10.0,NE,16.1,-,N/A,,Partly Cloudy,40,2013-09-30 02:53:00
7:53 PM,55.0,37.9,53,29.14,10.0,North,9.2,-,N/A,,Overcast,10,2013-09-30 03:53:00
8:53 PM,55.0,39.0,55,29.15,10.0,NNE,12.7,-,N/A,,Overcast,20,2013-09-30 04:53:00
9:53 PM,54.0,39.9,59,29.17,10.0,NNE,12.7,-,0.00,,Overcast,30,2013-09-30 05:53:00
10:53 PM,55.0,39.0,55,29.16,10.0,NNE,16.1,-,N/A,,Overcast,30,2013-09-30 06:53:00
11:53 PM,54.0,37.9,55,29.18,10.0,NNE,12.7,-,N/A,,Overcast,30,2013-09-30 07:53:00